[[{"header":{"parameterUnit":"m.s-1","parameterCategory":1,"la1":30.2991,"la2":30.254,"lo1":-89.0895,"lo2":-89.0444,"dy":0.0017,"dx":0.0017,"nx":28,"ny":28,"refTime":"2023-07-20T03:00:00:Z","depth":0,"parameterNumber":2,"parameterNumberName":"U-component_of_WINDS"},"data":[0,0,0,0,0,0,0,0,0,0,0,0,0,0,0,0,0,0,0,0,0,0,0,0,0,0,0,0,0,0,0,0,0,0,0,0,0,0,0,0,0,0,0,0,0,0,0,0,0,0,0,0,0,0,0,0,0,0,3.1991,3.1991,0,3.1977,3.1977,3.1977,3.1868,3.1866,3.1863,3.1861,3.1848,3.185,3.1853,0,0,0,0,0,0,0,0,0,0,0,0,0,3.1923,3.1925,3.1991,3.1991,3.1991,3.1977,3.1977,3.1977,3.1869,3.1866,3.1862,3.1859,3.1848,3.185,3.1853,0,0,0,0,0,0,0,0,0,0,0,0,0,3.1936,3.1926,3.1991,3.1935,3.193,3.1977,3.1977,3.1977,3.187,3.1866,3.1862,3.1858,3.1847,3.185,3.1853,3.1954,0,0,3.1863,3.1864,0,0,0,0,0,0,0,0,3.1935,3.1938,3.1943,3.1939,3.1933,3.192,3.1949,3.1969,3.1871,3.1893,3.1861,3.1856,3.1876,3.1876,3.1883,3.1953,3.1952,3.1863,3.1865,3.1867,3.1868,0,0,0,0,0,0,0,3.1934,3.1938,3.1985,3.1944,3.1937,3.1911,3.1908,3.1952,3.1907,3.189,3.1882,3.1882,3.1872,3.188,3.1882,3.1952,3.1863,3.1866,3.1868,3.1869,3.2101,3.2105,0,0,0,0,0,0,3.1941,3.1938,3.1986,3.1985,3.1924,3.1915,3.1912,3.1929,3.1906,3.1899,3.1886,3.1877,3.1876,3.1878,3.1881,3.1993,3.1867,3.187,3.1872,3.2097,3.2102,3.2106,0,0,0,0,0,0,3.194,3.1947,3.1986,3.1959,3.1962,3.1921,3.194,3.193,3.1938,3.1902,3.1894,3.1902,3.1873,3.1876,3.1935,3.1992,3.1871,3.1874,3.2092,3.2098,3.2104,3.2222,0,0,0,0,0,0,3.1939,3.1947,3.1985,3.1961,3.1964,3.2042,3.1944,3.1933,3.1943,3.1932,3.1915,3.1909,3.187,3.1931,3.1939,3.1994,3.1877,3.2086,3.2095,3.2102,3.2213,3.2232,3.2248,0,0,0,0,0,3.1937,3.202,3.1987,3.1994,3.2011,3.2045,3.2047,3.2,3.1949,3.1986,3.1963,3.1909,3.1985,3.1938,3.1946,3.2003,3.2083,3.2092,3.2102,3.2205,3.2228,3.2248,0,0,0,0,0,0,3.2052,3.2016,3.1979,3.2057,3.2055,3.2027,3.2072,3.2027,3.204,3.2029,3.1971,3.1968,3.2036,3.2026,3.1974,3.2097,3.2024,3.2036,3.2101,3.2122,3.2139,3.2139,3.1879,0,0,0,0,0,3.2087,3.2117,3.2084,3.2156,3.2157,3.2115,3.2128,3.2093,3.2088,3.2087,3.2068,3.2067,3.2089,3.2106,3.2125,3.2212,3.2205,3.2255,3.2273,3.2287,3.2297,3.2339,3.2359,3.2137,3.2137,3.2137,0,0,3.2158,3.2142,3.2165,3.2179,3.2173,3.2205,3.2115,3.2154,3.2177,3.2093,3.2146,3.2133,3.2127,3.22,3.2231,3.2193,3.2357,3.2299,3.2311,3.2313,3.2351,3.2372,3.239,3.2144,3.2143,3.2142,0,0,3.2304,3.2297,3.2353,3.2349,3.234,3.2312,3.2326,3.2304,3.2292,3.2344,3.2281,3.2309,3.235,3.2347,3.2352,3.2495,3.2445,3.2504,3.2593,3.2635,3.2652,3.2667,3.2715,3.2734,3.2514,3.2514,3.2514,0,3.2394,3.2439,3.2389,3.243,3.2437,3.2362,3.2418,3.2417,3.2416,3.2422,3.2381,3.2429,3.2421,3.249,3.2524,3.2532,3.2544,3.2504,3.2654,3.2669,3.2682,3.2727,3.2745,3.2521,3.252,3.252,3.2519,0,3.2548,3.2581,3.2629,3.2627,3.264,3.2689,3.2645,3.2664,3.2628,3.2604,3.2657,3.2644,3.2658,3.2672,3.2638,3.2736,3.2713,3.2664,3.2589,3.2711,3.2752,3.2769,3.2531,3.2528,3.2526,3.2525,0,0,3.2766,3.2734,3.2752,3.2749,3.2734,3.2758,3.2804,3.2816,3.2832,3.2835,3.287,3.2907,3.286,3.2865,3.283,3.2867,3.2977,3.2812,3.2811,3.284,3.3081,3.3115,3.3136,3.2945,3.2948,3.2951,3.308,0,3.2902,3.2976,3.2931,3.3012,3.304,3.2969,3.3009,3.3003,3.2982,3.3003,3.298,3.3005,3.2944,3.2946,3.298,3.2956,3.3024,3.2947,3.2975,3.2977,3.2975,3.3158,3.3195,3.3317,3.3096,3.3099,3.3101,0,3.3072,3.3078,3.3162,3.3138,3.3148,3.3184,3.319,3.3212,3.3205,3.3186,3.3192,3.3147,3.3189,3.3117,3.3174,3.3122,3.3132,3.3122,3.3126,3.3124,3.3044,3.3158,3.3356,3.3373,3.3127,3.3124,3.3123,0,3.3216,3.3247,3.33,3.33,3.3276,3.3302,3.3293,3.3281,3.3291,3.3297,3.3302,3.3315,3.3321,3.3331,3.329,3.3243,3.3351,3.3277,3.3336,3.3337,3.3359,3.3358,3.3558,3.3372,3.3372,3.3371,3.3371,0,3.3372,3.3424,3.3364,3.3396,3.3453,3.3401,3.3459,3.3442,3.3432,3.346,3.3401,3.3428,3.3374,3.3396,3.3365,3.3414,3.3419,3.3404,3.3394,3.3407,3.3408,3.341,3.3399,3.3376,3.3375,3.3374,3.3373,0,3.3542,3.3504,3.3555,3.3527,3.3521,3.3564,3.354,3.3568,3.3543,3.3578,3.3584,3.3545,3.3567,3.3528,3.3546,3.3525,3.3593,3.3572,3.3595,3.3587,3.3647,3.364,3.3852,3.3876,3.3678,3.368,3.3682,0,3.3641,3.3679,3.3655,3.3668,3.3662,3.3685,3.3693,3.3644,3.3656,3.3649,3.3678,3.3695,3.3706,3.3745,3.3718,3.3731,3.3708,3.3781,3.3709,3.372,3.3704,3.3701,3.3703,3.3795,3.3797,3.3799,3.3801,0,3.3821,3.3799,3.3814,3.3821,3.3833,3.3837,3.3837,3.3852,3.3799,3.3816,3.3837,3.3845,3.3862,3.3879,3.3885,3.3876,3.3829,3.3824,3.3837,3.3849,3.3859,3.385,3.3631,3.3819,3.3817,3.3815,3.3814,3.3814,3.3955,3.3985,3.3971,3.3988,3.3983,3.3984,3.4007,3.3985,3.4001,3.401,3.3981,3.4008,3.3999,3.4002,3.3998,3.4018,3.3986,3.4006,3.4011,3.4016,3.4023,3.3859,3.402,3.402,3.4019,3.4019,3.4018,0,3.4128,3.4115,3.4132,3.4132,3.4146,3.4101,3.4098,3.4112,3.4136,3.4131,3.4142,3.4165,3.4181,3.4156,3.4167,3.4188,3.4167,3.4193,3.4189,3.4187,3.4054,3.4039,3.421,3.421,3.421,3.4209,3.4209,3.4209,3.4219,3.4265,3.4242,3.4285,3.4272,3.4297,3.4299,3.4299,3.4294,3.4322,3.4334,3.4317,3.4303,3.4313,3.4325,3.4318,3.4323,3.4356,3.434,3.4215,3.4197,3.4179,3.4164,3.4358,3.4358,3.447,3.4472,3.4472]},{"header":{"parameterUnit":"m.s-1","parameterCategory":1,"la1":30.2991,"la2":30.254,"lo1":-89.0895,"lo2":-89.0444,"dy":0.0017,"dx":0.0017,"nx":28,"ny":28,"refTime":"2023-07-20T03:00:00:Z","depth":0,"parameterNumber":3,"parameterNumberName":"V-component_of_WINDS"},"data":[0,0,0,0,0,0,0,0,0,0,0,0,0,0,0,0,0,0,0,0,0,0,0,0,0,0,0,0,0,0,0,0,0,0,0,0,0,0,0,0,0,0,0,0,0,0,0,0,0,0,0,0,0,0,0,0,0,0,3.471,3.471,0,3.4787,3.4788,3.4789,3.4768,3.4766,3.4765,3.4763,3.484,3.4843,3.4847,0,0,0,0,0,0,0,0,0,0,0,0,0,3.454,3.4543,3.471,3.4711,3.4712,3.4787,3.4788,3.4789,3.4768,3.4766,3.4765,3.4763,3.4839,3.4843,3.4847,0,0,0,0,0,0,0,0,0,0,0,0,0,3.4615,3.4544,3.4709,3.471,3.4711,3.4787,3.4788,3.4789,3.4769,3.4766,3.4764,3.4762,3.4838,3.4843,3.4848,3.4926,0,0,3.4864,3.4866,0,0,0,0,0,0,0,0,3.4611,3.4621,3.4709,3.471,3.4712,3.4766,3.4756,3.4835,3.4769,3.4747,3.4763,3.4761,3.4817,3.4824,3.4843,3.493,3.4933,3.4864,3.4867,3.487,3.4871,0,0,0,0,0,0,0,3.4606,3.4618,3.474,3.471,3.4712,3.4706,3.4714,3.4771,3.4794,3.4749,3.4747,3.4757,3.4817,3.4838,3.4845,3.4934,3.4864,3.4869,3.4872,3.4874,3.5087,3.5089,0,0,0,0,0,0,3.46,3.4614,3.4738,3.4742,3.4655,3.4711,3.472,3.475,3.4793,3.4798,3.4759,3.4756,3.4831,3.4839,3.4848,3.4941,3.487,3.4874,3.4877,3.5084,3.5087,3.509,0,0,0,0,0,0,3.4597,3.4611,3.4735,3.4678,3.4693,3.4716,3.4751,3.4753,3.4774,3.4801,3.4804,3.4776,3.4829,3.484,3.4907,3.4943,3.4877,3.4882,3.5081,3.5085,3.5089,3.5129,0,0,0,0,0,0,3.4592,3.461,3.4641,3.4679,3.4696,3.4794,3.4753,3.4756,3.4784,3.478,3.4818,3.4822,3.4828,3.4899,3.4912,3.4949,3.4886,3.5078,3.5083,3.5088,3.5124,3.5133,3.5141,0,0,0,0,0,3.4586,3.4649,3.4643,3.4658,3.4736,3.4796,3.4806,3.4811,3.4787,3.4817,3.4834,3.4821,3.4937,3.4906,3.492,3.496,3.5076,3.5082,3.5087,3.512,3.5132,3.5141,0,0,0,0,0,0,3.4615,3.4654,3.4648,3.4725,3.4758,3.4792,3.4831,3.4823,3.4863,3.4858,3.4862,3.4871,3.4939,3.4956,3.492,3.5037,3.5003,3.5012,3.5023,3.5034,3.5042,3.5036,3.489,0,0,0,0,0,3.4631,3.4677,3.4709,3.4774,3.4791,3.4808,3.4835,3.4836,3.4869,3.4882,3.4904,3.4936,3.4979,3.5008,3.5049,3.5127,3.5134,3.5161,3.5169,3.5176,3.5183,3.5224,3.5236,3.5109,3.5109,3.5109,0,0,3.4663,3.469,3.472,3.4781,3.4806,3.4852,3.482,3.4871,3.4905,3.489,3.4954,3.4971,3.5006,3.5078,3.5111,3.5094,3.522,3.5183,3.5189,3.5192,3.5231,3.5243,3.5253,3.5113,3.5112,3.5111,0,0,3.4746,3.4772,3.4829,3.4854,3.4893,3.4904,3.4917,3.4953,3.4964,3.5028,3.5017,3.5057,3.5133,3.5158,3.518,3.5271,3.526,3.5285,3.5329,3.5368,3.5378,3.5387,3.5418,3.5429,3.5292,3.5292,3.5292,0,3.4781,3.4853,3.4859,3.4911,3.4937,3.4926,3.4982,3.5006,3.5056,3.5074,3.5055,3.5148,3.5171,3.5248,3.527,3.529,3.5304,3.528,3.5377,3.5386,3.5394,3.5423,3.5435,3.5295,3.5295,3.5294,3.5294,0,3.4893,3.4943,3.4983,3.5032,3.5063,3.5117,3.513,3.516,3.5159,3.5171,3.5236,3.5263,3.5309,3.5328,3.5327,3.5404,3.5393,3.5375,3.5341,3.5408,3.5436,3.5448,3.5299,3.5298,3.5297,3.5296,0,0,3.4997,3.5048,3.5062,3.5083,3.5124,3.5162,3.5214,3.526,3.5285,3.532,3.5363,3.5426,3.541,3.5436,3.5437,3.5472,3.554,3.545,3.5451,3.5465,3.5625,3.5637,3.565,3.5534,3.5536,3.5538,3.5621,0,3.5082,3.5176,3.5182,3.5266,3.531,3.53,3.5345,3.5375,3.5388,3.5426,3.544,3.5484,3.546,3.5475,3.5509,3.5525,3.5572,3.5519,3.5572,3.5574,3.5563,3.5665,3.5678,3.5755,3.5632,3.5634,3.5636,0,3.5195,3.5232,3.5321,3.5354,3.5373,3.5414,3.5455,3.5493,3.5525,3.5532,3.556,3.5557,3.5609,3.5573,3.5645,3.5608,3.563,3.5641,3.5644,3.5648,3.5608,3.567,3.5781,3.5792,3.5653,3.5652,3.565,0,3.5259,3.5333,3.5394,3.5413,3.5454,3.5482,3.55,3.5531,3.5557,3.5593,3.561,3.5651,3.5673,3.5705,3.5712,3.5686,3.5783,3.5748,3.5788,3.5788,3.5808,3.5807,3.5922,3.5825,3.5825,3.5824,3.5824,0,3.5353,3.5408,3.5424,3.5462,3.5522,3.5528,3.5586,3.5602,3.5629,3.5669,3.5662,3.5699,3.5707,3.5746,3.5752,3.5808,3.5819,3.5825,3.5825,3.5825,3.5824,3.5838,3.5833,3.5827,3.5827,3.5826,3.5826,0,3.5436,3.5449,3.5516,3.5549,3.5558,3.56,3.5628,3.5663,3.5675,3.5725,3.5738,3.5756,3.58,3.5811,3.5864,3.5868,3.5935,3.5931,3.5924,3.5924,3.5963,3.5958,3.6091,3.6108,3.6,3.6001,3.6002,0,3.5494,3.5536,3.5573,3.5599,3.5619,3.5662,3.5688,3.5695,3.5723,3.5762,3.5793,3.5837,3.5873,3.5944,3.5962,3.6002,3.5998,3.6042,3.6004,3.6001,3.5997,3.5994,3.5997,3.6048,3.605,3.605,3.6051,0,3.5596,3.56,3.564,3.5682,3.5714,3.5747,3.5778,3.58,3.5811,3.5842,3.5888,3.5916,3.597,3.6013,3.6054,3.6071,3.6062,3.6063,3.6074,3.6073,3.6067,3.6069,3.5943,3.606,3.6059,3.6058,3.6058,3.6057,3.5667,3.5703,3.5734,3.5778,3.5802,3.5832,3.5866,3.5882,3.5921,3.5966,3.5967,3.6017,3.6046,3.61,3.6119,3.6157,3.6143,3.616,3.6164,3.6168,3.617,3.6062,3.6164,3.6164,3.6164,3.6164,3.6164,0,3.5768,3.5787,3.5827,3.5871,3.5905,3.5895,3.5929,3.5958,3.6002,3.603,3.6065,3.6117,3.6159,3.6179,3.622,3.6246,3.6243,3.6256,3.6254,3.6258,3.6181,3.6167,3.6258,3.6258,3.6258,3.6258,3.6258,3.6258,3.5824,3.5883,3.5891,3.5961,3.598,3.6029,3.6049,3.6075,3.6098,3.6156,3.6191,3.6204,3.6229,3.6271,3.6308,3.6313,3.6327,3.6342,3.6345,3.6273,3.6263,3.6254,3.624,3.6346,3.6346,3.6418,3.6419,3.642]}]]